This is the latest recevied weather packets stored in our database for station/object CE4TQY-10. If no packets are shown the sender has not sent any weather packets the latest 10 day(s).
| Time | Temp. | Humidity | Pressure | Rain* | Wind** | Luminosity | Snow |
|---|---|---|---|---|---|---|---|
| 1777819705 | 27.22° C | 29% | 1020.8 hPa | - | - | - | - |
| 1777818804 | 25° C | 33% | 1020.9 hPa | - | - | - | - |
| 1777817904 | 23.89° C | 35% | 1020.9 hPa | - | - | - | - |
| 1777817003 | 20.56° C | 41% | 1020.9 hPa | - | - | - | - |
| 1777816102 | 20.56° C | 40% | 1020.8 hPa | - | - | - | - |
| 1777815201 | 21.67° C | 39% | 1020.7 hPa | - | - | - | - |
| 1777814300 | 21.11° C | 42% | 1020.8 hPa | - | - | - | - |
| 1777813399 | 18.89° C | 46% | 1020.7 hPa | - | - | - | - |
| 1777812498 | 17.22° C | 49% | 1020.7 hPa | - | - | - | - |
| 1777811598 | 18.33° C | 47% | 1020.6 hPa | - | - | - | - |
| 1777810696 | 15° C | 53% | 1020.4 hPa | - | - | - | - |
| 1777809796 | 12.22° C | 58% | 1020.1 hPa | - | - | - | - |
| 1777808895 | 11.67° C | 59% | 1020.1 hPa | - | - | - | - |
| 1777807994 | 11.11° C | 57% | 1020 hPa | - | - | - | - |
| 1777807093 | 10.56° C | 64% | 1019.6 hPa | - | - | - | - |
| 1777806192 | 10.56° C | 64% | 1019.7 hPa | - | - | - | - |
| 1777805290 | 11.11° C | 62% | 1019.6 hPa | - | - | - | - |
| 1777804389 | 10.56° C | 64% | 1019.7 hPa | - | - | - | - |
| 1777803488 | 11.67° C | 58% | 1019.6 hPa | - | - | - | - |
| 1777802588 | 11.11° C | 64% | 1019.8 hPa | - | - | - | - |
| 1777801687 | 11.67° C | 61% | 1019.7 hPa | - | - | - | - |
| 1777800786 | 12.22° C | 59% | 1019.7 hPa | - | - | - | - |
| 1777799885 | 11.67° C | 56% | 1019.5 hPa | - | - | - | - |
| 1777798984 | 12.22° C | 54% | 1019.3 hPa | - | - | - | - |
| 1777798083 | 11.67° C | 61% | 1019.3 hPa | - | - | - | - |
* Rain since midnight (hover to see other rain measurements)
** Current wind speed in m/s (hover to see current wind gust speed)